• In Kazakhstan
  • List of Countries
  • For 7 days
  • Water Temperature
  • Satellite Maps
  • Weather Map
  • News
  • Weather Widgets
  • user-avatar
    Login

    Hourly Weather Baton Rouge

    Today, 25 November, Saturday

    Time Temperature Precipitation Wind Pressure Humidity
    00:00 +10°C° 0 mm 1 mps 760 mmHg 58%
    01:00 +9°C° 0 mm 1 mps 760 mmHg 60%
    02:00 +9°C° 0 mm 1 mps 760 mmHg 61%
    03:00 +8°C° 0 mm 0 mps 760 mmHg 63%
    04:00 +9°C° 0 mm 1 mps 760 mmHg 64%
    05:00 +9°C° 0 mm 1 mps 760 mmHg 66%
    06:00 +9°C° 0 mm 1 mps 760 mmHg 67%
    07:00 +11°C° 0 mm 1 mps 761 mmHg 63%
    08:00 +13°C° 0 mm 0 mps 761 mmHg 58%
    09:00 +15°C° 0 mm 0 mps 762 mmHg 54%
    10:00 +17°C° 0 mm 0 mps 762 mmHg 51%
    11:00 +19°C° 0 mm 0 mps 762 mmHg 47%
    12:00 +21°C° 0 mm 0 mps 762 mmHg 44%
    13:00 +23°C° 0 mm 1 mps 761 mmHg 44%
    14:00 +23°C° 0 mm 1 mps 761 mmHg 43%
    15:00 +24°C° 0 mm 1 mps 761 mmHg 43%
    16:00 +22°C° 0 mm 1 mps 761 mmHg 49%
    17:00 +20°C° 0 mm 1 mps 761 mmHg 55%
    18:00 +16°C° 0 mm 1 mps 762 mmHg 61%
    19:00 +16°C° 0 mm 1 mps 762 mmHg 63%
    20:00 +15°C° 0 mm 1 mps 763 mmHg 65%
    21:00 +15°C° 0 mm 2 mps 763 mmHg 67%
    22:00 +14°C° 0 mm 1 mps 764 mmHg 69%
    23:00 +14°C° 0 mm 1 mps 764 mmHg 70%

    Tomorrow, 26 November, Sunday

    Time Temperature Precipitation Wind Pressure Humidity
    00:00 +13°C° 0 mm 1 mps 764 mmHg 72%
    01:00 +13°C° 0 mm 1 mps 764 mmHg 74%
    02:00 +13°C° 0 mm 2 mps 764 mmHg 75%
    03:00 +12°C° 0 mm 2 mps 765 mmHg 77%
    04:00 +12°C° 0 mm 2 mps 765 mmHg 79%
    05:00 +10°C° 0 mm 2 mps 765 mmHg 82%
    06:00 +10°C° 0 mm 2 mps 765 mmHg 84%
    07:00 +12°C° 0 mm 2 mps 766 mmHg 79%
    08:00 +14°C° 0 mm 2 mps 766 mmHg 75%
    09:00 +15°C° 0 mm 2 mps 767 mmHg 70%
    10:00 +17°C° 0 mm 2 mps 767 mmHg 63%
    11:00 +18°C° 0 mm 3 mps 766 mmHg 57%
    12:00 +20°C° 0 mm 3 mps 766 mmHg 51%
    13:00 +20°C° 0 mm 3 mps 766 mmHg 48%
    14:00 +21°C° 0 mm 2 mps 765 mmHg 45%
    15:00 +21°C° 0 mm 2 mps 765 mmHg 42%
    16:00 +19°C° 0 mm 2 mps 765 mmHg 46%
    17:00 +17°C° 0 mm 2 mps 765 mmHg 50%
    18:00 +14°C° 0 mm 2 mps 765 mmHg 55%
    19:00 +14°C° 0 mm 2 mps 766 mmHg 56%
    20:00 +13°C° 0 mm 2 mps 766 mmHg 57%
    21:00 +12°C° 0 mm 2 mps 766 mmHg 58%
    22:00 +12°C° 0 mm 2 mps 766 mmHg 60%
    23:00 +10°C° 0 mm 2 mps 766 mmHg 62%

    Day after tomorrow, 27 November, Monday

    Time Temperature Precipitation Wind Pressure Humidity
    00:00 +10°C° 0 mm 1 mps 766 mmHg 64%
    01:00 +10°C° 0 mm 1 mps 766 mmHg 65%
    02:00 +9°C° 0 mm 1 mps 766 mmHg 66%
    03:00 +9°C° 0 mm 1 mps 765 mmHg 67%
    04:00 +9°C° 0 mm 1 mps 766 mmHg 68%
    05:00 +8°C° 0 mm 1 mps 766 mmHg 68%
    06:00 +8°C° 0 mm 1 mps 766 mmHg 69%
    07:00 +10°C° 0 mm 1 mps 766 mmHg 64%
    08:00 +11°C° 0 mm 1 mps 767 mmHg 58%
    09:00 +13°C° 0 mm 2 mps 767 mmHg 53%
    10:00 +15°C° 0 mm 1 mps 766 mmHg 46%
    11:00 +18°C° 0 mm 1 mps 766 mmHg 40%
    12:00 +21°C° 0 mm 1 mps 765 mmHg 33%
    13:00 +21°C° 0 mm 1 mps 765 mmHg 33%
    14:00 +21°C° 0 mm 1 mps 764 mmHg 32%
    15:00 +21°C° 0 mm 1 mps 763 mmHg 31%
    16:00 +19°C° 0 mm 1 mps 763 mmHg 36%
    17:00 +16°C° 0 mm 1 mps 764 mmHg 42%
    18:00 +14°C° 0 mm 1 mps 764 mmHg 47%
    19:00 +13°C° 0 mm 1 mps 764 mmHg 49%
    20:00 +12°C° 0 mm 1 mps 764 mmHg 50%
    21:00 +12°C° 0 mm 1 mps 764 mmHg 52%
    22:00 +11°C° 0 mm 1 mps 764 mmHg 53%
    23:00 +11°C° 0 mm 1 mps 764 mmHg 54%

    28 November, Tuesday

    Time Temperature Precipitation Wind Pressure Humidity
    00:00 +10°C° 0 mm 1 mps 764 mmHg 56%
    01:00 +10°C° 0 mm 1 mps 764 mmHg 57%
    02:00 +10°C° 0 mm 1 mps 764 mmHg 58%
    03:00 +9°C° 0 mm 1 mps 764 mmHg 59%
    04:00 +9°C° 0 mm 1 mps 764 mmHg 62%
    05:00 +9°C° 0 mm 1 mps 764 mmHg 64%
    06:00 +8°C° 0 mm 2 mps 764 mmHg 67%
    07:00 +10°C° 0 mm 2 mps 764 mmHg 64%
    08:00 +13°C° 0 mm 2 mps 764 mmHg 62%
    09:00 +15°C° 0 mm 2 mps 765 mmHg 59%
    10:00 +17°C° 0 mm 2 mps 764 mmHg 56%
    11:00 +19°C° 0 mm 2 mps 764 mmHg 53%
    12:00 +23°C° 0 mm 2 mps 764 mmHg 49%
    13:00 +23°C° 0 mm 2 mps 763 mmHg 49%
    14:00 +23°C° 0 mm 2 mps 763 mmHg 49%
    15:00 +24°C° 0 mm 2 mps 762 mmHg 49%
    16:00 +21°C° 0 mm 2 mps 763 mmHg 56%
    17:00 +20°C° 0 mm 1 mps 763 mmHg 63%
    18:00 +18°C° 0 mm 1 mps 763 mmHg 70%
    19:00 +18°C° 0 mm 1 mps 764 mmHg 73%
    20:00 +16°C° 0 mm 1 mps 764 mmHg 76%
    21:00 +15°C° 0 mm 1 mps 765 mmHg 79%
    22:00 +15°C° 0 mm 1 mps 765 mmHg 81%
    23:00 +15°C° 0 mm 1 mps 765 mmHg 84%

    29 November, Wednesday

    Time Temperature Precipitation Wind Pressure Humidity
    00:00 +14°C° 0 mm 1 mps 765 mmHg 87%
    01:00 +14°C° 0 mm 1 mps 764 mmHg 88%
    02:00 +14°C° 0 mm 1 mps 764 mmHg 90%
    03:00 +14°C° 0 mm 1 mps 764 mmHg 91%
    04:00 +14°C° 0 mm 1 mps 764 mmHg 92%
    05:00 +14°C° 0 mm 1 mps 764 mmHg 93%
    06:00 +14°C° 0 mm 1 mps 765 mmHg 94%
    07:00 +16°C° 0 mm 1 mps 765 mmHg 89%
    08:00 +19°C° 0 mm 1 mps 765 mmHg 84%
    09:00 +19°C° 0 mm 2 mps 766 mmHg 79%
    10:00 +21°C° 0 mm 2 mps 765 mmHg 72%
    11:00 +24°C° 0 mm 2 mps 765 mmHg 65%
    12:00 +26°C° 0 mm 2 mps 764 mmHg 58%
    13:00 +26°C° 0 mm 2 mps 764 mmHg 58%
    14:00 +26°C° 0 mm 2 mps 763 mmHg 57%
    15:00 +26°C° 0 mm 2 mps 763 mmHg 57%
    16:00 +24°C° 0 mm 2 mps 763 mmHg 66%
    17:00 +21°C° 0 mm 2 mps 763 mmHg 75%
    18:00 +19°C° 0 mm 2 mps 763 mmHg 84%
    19:00 +19°C° 0 mm 2 mps 763 mmHg 87%
    20:00 +20°C° 0 mm 1 mps 764 mmHg 89%
    21:00 +19°C° 0 mm 1 mps 764 mmHg 92%
    22:00 +19°C° 0 mm 1 mps 764 mmHg 93%
    23:00 +19°C° 0 mm 1 mps 764 mmHg 94%

    30 November, Thursday

    Time Temperature Precipitation Wind Pressure Humidity
    00:00 +19°C° 0 mm 1 mps 763 mmHg 95%
    01:00 +19°C° 0 mm 1 mps 763 mmHg 95%
    02:00 +18°C° 0 mm 1 mps 763 mmHg 96%
    03:00 +18°C° 0 mm 1 mps 763 mmHg 96%
    04:00 +17°C° 0 mm 2 mps 763 mmHg 93%
    05:00 +16°C° 0 mm 2 mps 764 mmHg 91%
    06:00 +16°C° 0 mm 2 mps 764 mmHg 88%
    07:00 +16°C° 0 mm 2 mps 764 mmHg 82%
    08:00 +17°C° 0 mm 3 mps 765 mmHg 77%
    09:00 +17°C° 0 mm 3 mps 765 mmHg 71%
    10:00 +18°C° 0 mm 3 mps 764 mmHg 66%
    11:00 +19°C° 0 mm 3 mps 764 mmHg 60%
    12:00 +21°C° 0 mm 3 mps 764 mmHg 55%
    13:00 +21°C° 0 mm 4 mps 764 mmHg 56%
    14:00 +21°C° 0 mm 4 mps 763 mmHg 57%
    15:00 +21°C° 0 mm 4 mps 763 mmHg 58%
    16:00 +20°C° 0 mm 4 mps 763 mmHg 62%
    17:00 +19°C° 0 mm 4 mps 764 mmHg 66%
    18:00 +18°C° 0 mm 4 mps 764 mmHg 70%
    19:00 +17°C° 0 mm 4 mps 765 mmHg 70%
    20:00 +17°C° 0 mm 4 mps 765 mmHg 70%
    21:00 +15°C° 0 mm 5 mps 766 mmHg 70%
    22:00 +14°C° 0 mm 4 mps 766 mmHg 65%
    23:00 +13°C° 0 mm 4 mps 766 mmHg 59%
    Show more